Flag for U.S.A. Weather past 2 weeks in Victorville, California, U.S.A.

Now
52 °F

Clear.


Feels Like: 46 °F
Forecast: 46 / 63 °F
Wind: 21 mph from West

Location: George Air Force Base / Victorvi

Current Time: Apr 25, 2015 at 4:49:48 AM

Latest Report: Apr 25, 2015 at 4:15 AM


Visibility: 10 mi

Pressure: 29.91 "Hg

Humidity: 54%

Dew point: 36 °F

Location of VictorvilleLocation

Historic Weather in Victorville — Graph

°F

Victorville temperature yesterday

Maximum temperature yesterday: 70 °F (at 1:35 PM)
Minimum temperature yesterday: 48 °F (at 2:55 AM)
Average temperature yesterday: 58 °F

Past Weeks' High & Low Weather Summary

 TemperatureHumidityPressure
High84 °F (Apr 19, 3:15 PM)87% (Apr 23, 3:35 AM)30.16 "Hg (Apr 23, 3:35 AM)
Low37 °F (Apr 15, 5:35 AM)7% (Apr 18, 2:15 PM)29.77 "Hg (Apr 20, 4:15 PM)
Average61 °F33%29.97 "Hg
* Reported Apr 10 3:15 AM — Apr 25 3:55 AM, Victorville, Weather by CustomWeather, © 2015

Note: Actual official high and low records may vary slightly from our data, if they occured in-between our weather recording intervals... More about our weather records

Advertising

Victorville weather history for previous 24 hours

 ConditionsComfort  
Time TempWeatherWind HumidityBarometerVisibility
3:55 AM
Sat, Apr 25
52 °FClear.17 mph50%29.91 "Hg10 mi
3:15 AM54 °FClear.18 mph47%29.92 "Hg10 mi
2:55 AM54 °FClear.20 mph47%29.91 "Hg10 mi
2:35 AM54 °FClear.21 mph47%29.91 "Hg10 mi
2:15 AM55 °FClear.18 mph44%29.91 "Hg10 mi
1:55 AM55 °FClear.25 mph44%29.91 "Hg10 mi
1:35 AM54 °FClear.18 mph51%29.92 "Hg10 mi
1:15 AM54 °FClear.18 mph51%29.93 "Hg10 mi
12:55 AM55 °FClear.17 mph51%29.93 "Hg10 mi
12:15 AM55 °FClear.14 mph55%29.93 "Hg10 mi
11:55 PM
Fri, Apr 24
55 °FClear.12 mph55%29.93 "Hg10 mi
11:35 PM55 °FClear.16 mph55%29.92 "Hg10 mi
11:15 PM55 °FClear.18 mph55%29.92 "Hg10 mi
10:55 PM55 °FClear.23 mph55%29.92 "Hg10 mi
10:35 PM55 °FClear.22 mph55%29.93 "Hg10 mi
10:15 PM55 °FClear.17 mph55%29.93 "Hg10 mi
9:55 PM55 °FClear.20 mph55%29.93 "Hg10 mi
9:35 PM55 °FClear.18 mph55%29.93 "Hg10 mi
9:15 PM57 °FClear.18 mph51%29.94 "Hg10 mi
8:15 PM57 °FSunny.18 mph51%29.93 "Hg10 mi
7:55 PM59 °FSunny.12 mph48%29.93 "Hg10 mi
7:15 PM61 °FSunny.22 mph45%29.91 "Hg10 mi
6:55 PM61 °FSunny.17 mph45%29.92 "Hg10 mi
5:55 PM63 °FSunny.16 mph39%29.92 "Hg10 mi
5:35 PM63 °FSunny.20 mph39%29.92 "Hg10 mi
5:15 PM63 °FSunny.17 mph37%29.92 "Hg10 mi
4:35 PM64 °FSunny.21 mph34%29.91 "Hg10 mi
4:15 PM66 °FSunny.21 mph32%29.90 "Hg10 mi
3:55 PM70 °FSunny.21 mph31%29.90 "Hg10 mi
3:35 PM70 °FSunny.20 mph27%29.90 "Hg10 mi
3:15 PM70 °FSunny.13 mph33%29.91 "Hg10 mi
2:55 PM70 °FSunny.21 mph31%29.90 "Hg10 mi
2:15 PM70 °FSunny.18 mph31%29.91 "Hg10 mi
1:55 PM70 °FSunny.20 mph31%29.91 "Hg10 mi
1:35 PM70 °FSunny.22 mph31%29.90 "Hg10 mi
1:15 PM68 °FSunny.21 mph35%29.91 "Hg10 mi
12:55 PM66 °FSunny.21 mph37%29.91 "Hg10 mi
12:35 PM66 °FSunny.20 mph40%29.92 "Hg10 mi
12:15 PM66 °FScattered clouds.18 mph40%29.92 "Hg10 mi
11:55 AM66 °FScattered clouds.20 mph40%29.93 "Hg10 mi
11:35 AM66 °FScattered clouds.14 mph40%29.93 "Hg10 mi
11:15 AM66 °FScattered clouds.18 mph43%29.93 "Hg10 mi
10:55 AM66 °FSunny.18 mph43%29.93 "Hg10 mi
10:35 AM64 °FSunny.18 mph46%29.92 "Hg10 mi
10:15 AM64 °FSunny.20 mph46%29.92 "Hg10 mi
9:55 AM63 °FMild.16 mph49%29.92 "Hg10 mi
9:35 AM63 °FSunny.17 mph49%29.92 "Hg10 mi
9:15 AM63 °FSunny.16 mph49%29.91 "Hg10 mi
8:55 AM59 °FRefreshingly cool.12 mph59%29.92 "HgN/A
8:35 AM59 °FSunny.No wind59%29.91 "Hg10 mi
8:15 AM55 °FSunny.No wind67%29.91 "Hg10 mi
7:55 AM54 °FLight rain. Cloudy.No wind72%29.90 "Hg10 mi
7:35 AM52 °FScattered clouds.No wind72%29.89 "Hg10 mi
7:15 AM52 °FOvercast.No wind77%29.89 "Hg10 mi
6:55 AM52 °FOvercast.12 mph72%29.88 "Hg10 mi
6:35 AM50 °FPassing clouds.3 mph76%29.88 "Hg10 mi
6:15 AM48 °FClear.No wind82%29.87 "Hg10 mi
5:55 AM48 °FClear.No wind82%29.87 "Hg10 mi
5:35 AM48 °FClear.No wind82%29.87 "Hg10 mi
5:15 AM48 °FClear.No wind82%29.86 "Hg10 mi
4:55 AM48 °FClear.No wind82%29.86 "Hg10 mi
4:35 AM48 °FClear.10 mph82%29.86 "Hg10 mi
4:15 AM48 °FClear.13 mph82%29.86 "Hg10 mi
Weather by CustomWeather, © 2015

See weather overviewHow to use our weather pages